Tracking 31027 objects as of 19-Jul-2025
HD Live streaming from Space Station
objects crossing your sky now

COSMOS 1287

Track COSMOS 1287 now!
10-day predictions
COSMOS 1287 is classified as:


NORAD ID: 12636
Int'l Code: 1981-074A
Perigee: 1,471.6 km
Apogee: 1,519.1 km
Inclination: 74.0 °
Period: 115.7 minutes
Semi major axis: 7866 km
RCS: 0.667 m2 (medium)
Launch date: August 6, 1981
Source: Commonwealth of Independent States (former USSR) (CIS)
Launch site: PLESETSK MISSILE AND SPACE COMPLEX (PKMTR)
Your satellite tracking list
COSMOS 2502
Track 1 satellite(s)




NASA's NSSDC Master Catalog

Two Line Element Set (TLE):
1 12636U 81074A   25199.52067970 -.00000016  00000-0 -51235-5 0  9990
2 12636  74.0342 282.4075 0030221 146.9982 213.2959 12.44348689996919
Source of the keplerian elements: AFSPC